Location: Bs. As. Argentina
(34.6000°S, 58.6333°W)
Time: 10:35:08
(UTC-03:00)

Tiangong - Visible Passes

Search period start: 19 September 2024 00:00
Search period end: 29 September 2024 00:00
Orbit: 373 x 377 km, 41.5° (Epoch: 18 September)

Date Brightness Start Highest point End Pass type
(mag) Time Alt. Az. Time Alt. Az. Time Alt. Az.
19 Sep 0.7 06:01:56 10° N 06:03:32 13° NE 06:05:08 10° ENE visible
21 Sep -0.1 05:32:23 13° NNW 05:34:21 23° NE 05:36:54 10° E visible
22 Sep -2.1 06:04:48 10° WNW 06:07:52 82° NNE 06:11:01 10° ESE visible
23 Sep -1.1 05:05:00 39° NE 05:05:00 39° NE 05:07:55 10° ESE visible
24 Sep -2.0 05:37:02 29° W 05:38:25 61° SSW 05:41:33 10° ESE visible
25 Sep 0.2 04:36:56 25° ESE 04:36:56 25° ESE 04:38:26 10° ESE visible
25 Sep -0.8 06:09:15 10° WSW 06:12:04 29° SSW 06:14:53 10° SE visible
26 Sep -1.4 05:08:41 41° SSW 05:08:43 41° SSW 05:11:45 10° SE visible
27 Sep 1.4 04:08:21 11° ESE 04:08:21 11° ESE 04:08:34 10° ESE visible
27 Sep -0.4 05:40:19 14° WSW 05:42:19 24° S 05:44:59 10° SE visible
28 Sep 0.0 04:39:53 24° SSE 04:39:53 24° SSE 04:41:40 10° SE visible
